Location: ??????
(41.3794°N, 22.5014°E)
Time: 08:28:14
(UTC+00:00)

Meteor 1-20 Rocket - Pass Details

Date: 30 November 2020
Orbit: 819 x 892 km, 81.2° (Epoch: 17 January)

Event Time Altitude Azimuth Distance (km) Brightness Sun altitude
Rises 16:06:29 0° 349° (N) 3,514 7.3 -12.0°
Reaches altitude 10° 16:08:57 10° 349° (N) 2,569 6.6 -12.4°
Maximum altitude 16:14:49 83° 263° (W) 900 4.4 -13.5°
Drops below altitude 10° 16:20:36 10° 175° (S) 2,528 6.8 -14.5°
Sets 16:23:01 0° 175° (S) 3,453 7.5 -14.9°
